sat.trackr.live / text

‹ back to catalog

INTELSAT 40E (IS-40E)

NORAD 56174 · 2023-052A

PAYLOAD ACTIVE UNKNOWN

§ Identity

Operator
Country
ITSO
Launch date
2023-04-07
Launch site
AFETR
Launch vehicle
Mass (kg)
RCS (m²)

Purposes: comms

External: N2YO · Heavens-Above · Gunter

§ Orbital elements

Epoch: 2026-05-25T04:28:19.046784Z

Period
1,436.14 min
Inclination
0.0142°
Eccentricity
0.0001906
Mean motion
1.00268937 rev/d
Perigee alt
35,779.4 km
Apogee alt
35,795.4 km
Semi-major
42,165.5 km
B*
0.0000e+0
RAAN
293.7294°
Arg perigee
171.4833°
Mean anomaly
113.6467°
Rev number
1,159

§ Raw data

INTELSAT 40E (IS-40E)1 56174U 23052A   26145.18633156  .00000000  00000+0  00000+0 0  99942 56174   0.0142 293.7294 0001906 171.4833 113.6467  1.00268937 11591

JSON: /api/v1/satellites/56174 · /tle

For live sub-satellite position, see the globe view (requires WebGL).

§ Visibility from observer

Set your observer location to see the next 7 days of passes ≥ 10°. The values pass through the URL so the page stays shareable.

No JS? Fill the form by hand. The geolocation button needs JavaScript.